Location: B?ezina
(49.8085°N, 13.6013°E)
Time: 21:41:50
(UTC+00:00)

Cosmos 1743 - Pass Details

Date: 19 May 2025
Orbit: 432 x 442 km, 82.5° (Epoch: 15 June)

Event Time Altitude Azimuth Distance (km) Brightness Sun altitude
Rises 20:14:27 0° 343° (NNW) 2,458 7.5 -11.0°
Reaches altitude 10° 20:16:37 10° 335° (NNW) 1,579 6.6 -11.2°
Maximum altitude 20:19:48 36° 267° (W) 722 3.8 -11.5°
Drops below altitude 10° 20:22:57 10° 199° (SSW) 1,560 4.8 -11.8°
Enters shadow 20:23:33 - 196° (SSW) 1,795 5.1 -11.9°
